Weather History for Fairbanks Eiels, AK

Change the Weather History Date:

Wednesday, January 22, 2014

  Actual Average Record
Temperature  
Mean Temperature 26 °F -  
Max Temperature 33 °F 0 °F 41 °F (1987)
Min Temperature 18 °F -15 °F -54 °F (1951)
Degree Days  
Heating Degree Days 40    
Moisture  
Dew Point 23 °F    
Average Humidity 91    
Maximum Humidity 100    
Minimum Humidity 73    
Precipitation  
Precipitation 0.00 in - - ()
Sea Level Pressure  
Sea Level Pressure 29.72 in    
Wind  
Wind Speed 5 mph (South)    
Max Wind Speed 14 mph    
Max Gust Speed -    
Visibility 9 miles    
Events Snow    
Averages and records for this station are not official NWS values.
T = Trace of Precipitation, MM = Missing Value Source: NWS Daily Summary

Daily Weather History Graph

Daily Weather History Graph

Search for Another Location

Airport:

Trip Planner

Search our weather history database for the weather conditions in past years. The results will help you decide how hot, cold, wet, or windy it might be!

Date:

Astronomy

Jan. 22, 2014 Rise Set
Actual Time 10:02 AM AKST 3:58 PM AKST
Civil Twilight 8:57 AM AKST 5:03 PM AKST
Nautical Twilight 7:54 AM AKST 6:06 PM AKST
Astronomical Twilight 6:56 AM AKST 7:04 PM AKST
Moon 12:09 AM AKST (1/22) 10:29 AM AKST (1/22)
Length of Visible Light 8h 05m
Length of Day
5h 56m
Waning Gibbous, 64% of the Moon is Illuminated
Jan 22
Waning Gibbous
Jan 23
Last Quarter
Jan 30
New
Feb 6
First Quarter
Feb 14
Full

Hourly Weather History & Observations

Time (AKST) Temp. Windchill Dew Point Humidity Pressure Visibility Wind Dir Wind Speed Gust Speed Precip Events Conditions
12:58 AM 33.4 °F 23.9 °F 25.5 °F 73% 29.71 in 10.0 mi SW 13.8 mph - 0.00 in   Mostly Cloudy
1:13 AM 32.0 °F 23.6 °F 24.8 °F 75% 29.70 in 10.0 mi SW 10.4 mph - N/A   Overcast
1:58 AM 30.7 °F 23.3 °F 26.1 °F 83% 29.76 in 10.0 mi SW 8.1 mph - 0.00 in   Overcast
2:13 AM 32.0 °F 26.4 °F 26.6 °F 80% 29.73 in 9.0 mi SW 5.8 mph - N/A Snow Light Snow
2:28 AM 32.0 °F 27.5 °F 26.6 °F 80% 29.73 in 9.0 mi SSE 4.6 mph - N/A Snow Light Snow
2:43 AM 30.2 °F 25.4 °F 26.6 °F 86% 29.74 in 6.0 mi SSE 4.6 mph - N/A Snow Light Snow
2:58 AM 29.5 °F 25.9 °F 27.3 °F 92% 29.78 in 10.0 mi ESE 3.5 mph - 0.00 in Snow Light Snow
3:58 AM 29.7 °F 23.7 °F 27.7 °F 92% 29.79 in 10.0 mi SE 5.8 mph - 0.00 in   Overcast
4:28 AM 28.4 °F 20.4 °F 26.6 °F 93% 29.76 in 10.0 mi SSE 8.1 mph - N/A   Mostly Cloudy
4:58 AM 28.4 °F 21.2 °F 26.8 °F 94% 29.79 in 10.0 mi South 6.9 mph - N/A   Mostly Cloudy
5:58 AM 28.6 °F - 27.0 °F 94% 29.81 in 9.0 mi Calm Calm - N/A   Mostly Cloudy
6:13 AM 24.8 °F - 23.0 °F 93% 29.78 in 2.0 mi North 1.2 mph - N/A   Mostly Cloudy
6:28 AM 23.0 °F 18.4 °F 21.2 °F 93% 29.79 in 10.0 mi North 3.5 mph - N/A   Scattered Clouds
6:43 AM 23.0 °F - 21.2 °F 93% 29.79 in 1.2 mi Calm Calm - N/A   Mostly Cloudy
6:58 AM 23.0 °F - 23.0 °F 100% 29.83 in 0.8 mi Calm Calm - N/A   Overcast
7:02 AM 23.0 °F - 21.2 °F 93% 29.79 in 10.0 mi Calm Calm - N/A   Overcast
7:58 AM 24.8 °F 16.9 °F 23.4 °F 94% 29.81 in 10.0 mi North 6.9 mph - N/A   Mostly Cloudy
8:43 AM 28.4 °F - 26.6 °F 93% 29.79 in 10.0 mi Calm Calm - N/A   Overcast
8:58 AM 27.1 °F - 25.9 °F 95% 29.83 in 10.0 mi Calm Calm - N/A   Mostly Cloudy
9:28 AM 23.0 °F - 21.2 °F 93% 29.77 in 10.0 mi Calm Calm - N/A   Mostly Cloudy
9:43 AM 23.0 °F - 21.2 °F 93% 29.77 in 5.0 mi Calm Calm - N/A   Mostly Cloudy
9:58 AM 20.3 °F - 18.3 °F 92% 29.81 in 6.0 mi SE 2.3 mph - N/A   Mostly Cloudy
10:43 AM 24.8 °F - 23.0 °F 93% 29.75 in 10.0 mi Calm Calm - N/A   Mostly Cloudy
10:58 AM 24.1 °F - 22.6 °F 94% 29.78 in 10.0 mi Calm Calm - N/A   Mostly Cloudy
11:58 AM 21.6 °F - 19.8 °F 93% 29.76 in 10.0 mi NNW 2.3 mph - N/A   Overcast
12:58 PM 24.4 °F - 23.0 °F 94% 29.73 in 10.0 mi Calm Calm - N/A   Overcast
1:58 PM 23.2 °F - 21.6 °F 94% 29.71 in 10.0 mi Calm Calm - N/A   Overcast
2:58 PM 22.3 °F - 20.5 °F 93% 29.68 in 10.0 mi Calm Calm - N/A   Scattered Clouds
3:58 PM 23.9 °F - 22.1 °F 93% 29.63 in 10.0 mi Calm Calm - N/A   Mostly Cloudy
4:58 PM 24.6 °F - 23.2 °F 94% 29.61 in 10.0 mi North 2.3 mph - N/A   Mostly Cloudy
5:58 PM 21.9 °F - 20.1 °F 93% 29.59 in 10.0 mi Calm Calm - N/A   Scattered Clouds
6:58 PM 18.9 °F - 16.7 °F 91% 29.60 in 10.0 mi Calm Calm - N/A   Partly Cloudy
7:58 PM 23.4 °F 17.4 °F 21.7 °F 94% 29.57 in 10.0 mi NNW 4.6 mph - N/A   Partly Cloudy
8:58 PM 21.0 °F - 19.0 °F 92% 29.55 in 10.0 mi Variable 2.3 mph - N/A   Partly Cloudy
9:58 PM 24.1 °F - 22.8 °F 95% 29.56 in 10.0 mi Calm Calm - N/A   Partly Cloudy
10:58 PM 21.6 °F - 19.6 °F 92% 29.56 in 10.0 mi Calm Calm - N/A   Partly Cloudy
11:58 PM 23.5 °F - 21.7 °F 93% 29.54 in 10.0 mi Calm Calm - N/A   Clear